Location: Nemiskam
(49.4820°N, 111.2775°W)
Time: 08:49:33
(UTC+00:00)

Tiangong - Pass Details

Date: 04 December 2022
Orbit: 382 x 386 km, 41.5° (Epoch: 05 February)

Event Time Altitude Azimuth Distance (km) Brightness Sun altitude
Rises 01:04:41 0° 232° (SW) 2,247 3.1 -15.1°
Reaches altitude 10° 01:07:15 10° 210° (SSW) 1,396 1.4 -15.5°
Maximum altitude 01:09:20 17° 169° (S) 1,078 0.2 -15.8°
Enters shadow 01:10:28 14° 143° (SE) 1,183 0.1 -16.0°
